Home   Weather   St. Veit an der Glan   Past weeks

Flag for Austria Past Weather in St. Veit an der Glan, Carinthia, Austria — Yesterday and Last 2 Weeks

Now
60 °F

Partly sunny.


Feels Like: 60 °F
Forecast: 48 / 58 °F
Wind: 5 mph from West

Location: Klagenfurt-Flughafen

Current Time: Apr 25, 2017 at 6:41:08 pm

Latest Report: Apr 25, 2017 at 6:00 pm


Visibility: 19 mi

Pressure: 29.80 "Hg

Humidity: 48%

Dew Point: 40 °F

Location of St. Veit an der GlanLocation

Past Weather in St. Veit an der Glan — Graph

°F

St. Veit an der Glan Temperature Yesterday

Maximum temperature yesterday: 64 °F (at 5:00 pm)
Minimum temperature yesterday: 39 °F (at 6:00 am)
Average temperature yesterday: 51 °F

High & Low Weather Summary for the Past Weeks

 TemperatureHumidityPressure
High75 °F (Apr 10, 4:00 pm)99% (Apr 16, 3:00 am)30.51 "Hg (Apr 16, 3:00 am)
Low26 °F (Apr 21, 5:00 am)20% (Apr 21, 4:00 pm)29.79 "Hg (Apr 13, 5:00 pm)
Average49 °F61%30.06 "Hg
* Reported Apr 10 4:00 pm — Apr 25 4:00 pm, St. Veit an der Glan, Weather by CustomWeather, © 2017

Note: Actual official high and low records may vary slightly from our data, if they occured in-between our weather recording intervals... More about our weather records

Advertising

St. Veit an der Glan Weather History for the Previous 24 Hours

Scroll right to see more
 ConditionsComfort  
Time TempWeatherWind HumidityBarometerVisibility
4:00 pm
Tue, Apr 25
63 °FOvercast.5 mph43%29.81 "Hg22 mi
3:00 pm61 °FOvercast.6 mph48%29.83 "Hg22 mi
2:00 pm62 °FOvercast.3 mph48%29.83 "Hg15 mi
1:00 pm61 °FPartly sunny.6 mph46%29.84 "Hg22 mi
12:00 pm62 °FPartly sunny.5 mph46%29.84 "Hg25 mi
11:00 am63 °FScattered clouds.N/A47%29.84 "Hg19 mi
10:00 am59 °FPassing clouds.N/A57%29.87 "Hg16 mi
9:00 am53 °FPassing clouds.N/A66%29.91 "Hg14 mi
8:00 am45 °FPassing clouds.N/A78%29.93 "Hg14 mi
7:00 am40 °FQuite cool.N/A84%29.96 "Hg14 mi
6:00 am40 °FQuite cool.N/A86%29.96 "Hg14 mi
5:00 am41 °FQuite cool.N/A86%29.96 "Hg16 mi
4:00 am43 °FQuite cool.N/A83%29.96 "Hg17 mi
3:00 am43 °FQuite cool.N/A83%29.98 "Hg28 mi
2:00 am45 °FCool.N/A80%29.98 "Hg25 mi
1:00 am43 °FPassing clouds.N/A80%30.00 "Hg28 mi
12:00 am49 °FCool.N/A72%29.98 "Hg28 mi
11:00 pm
Mon, Apr 24
52 °FPassing clouds.N/A64%29.98 "Hg28 mi
9:00 pm55 °FPassing clouds.N/A57%29.96 "Hg10 mi
8:00 pm55 °FPassing clouds.3 mph56%29.95 "Hg31 mi
7:00 pm61 °FPassing clouds.5 mph44%29.93 "Hg25 mi
6:00 pm63 °FPassing clouds.5 mph38%29.92 "Hg25 mi
Weather by CustomWeather, © 2017

See weather overviewHow to use our weather pages